STARLINK-35583

Last updated on Wed Dec 31 2025 00:02:06 GMT+0000 (Coordinated Universal Time)

1 66611U 25270Z 25364.50943052 .00195782 00000+0 45948-2 0 9997 2 66611 42.9987 89.6392 0001004 262.1846 97.8897 15.40568100 7209
UTC large
Height (km)
Speed (km/s)
/
Latitude / Longitude
Inclination (degrees)
Orbital Period (minutes)
Azimuth
Elevation
Range (km)
Doppler Factor

Next 0 passes for location: London (51.5072 / 0.1276)

Sorry there are no passes over London.